Big Bear Station Historical Data
Daily Summary for August 9, 2017 Units:  English    Metric   Both
Next Day »
Daily Weekly Monthly Yearly Custom
  High: Low: Average:
Temperature: 83.5 °F 51.4 °F 68.9 °F
Dew Point: 51.6 °F 29.2 °F 42 °F
Humidity: 86% 23% 41%
Wind Speed: 7.3mph 0.0mph 2.5mph
Wind Gust: -999.0mph - -
Wind- - WSW
Pressure: 30.26 in 30.24 in -
Precipitation: 0.00 in    
Historical Graphs
 
 
Tabular Data for August 9, 2017
Time Temperature Dew Point Pressure Wind Wind Speed Wind Gust Humidity Rainfall Rate (Hourly)
06:58 52.0 °F 47.9 °F 30.24 in Calm   -999.0 mph 86% 0 in
07:13 51.8 °F 47.7 °F 30.24 in Calm   -999.0 mph 86% 0 in
07:29 52.7 °F 48.0 °F 30.24 in Calm   -999.0 mph 84% 0 in
07:44 53.1 °F 48.4 °F 30.24 in Calm   -999.0 mph 84% 0 in
07:59 54.5 °F 50.1 °F 30.24 in Calm   -999.0 mph 85% 0 in
08:14 56.1 °F 51.3 °F 30.24 in WNW 1.7 mph -999.0 mph 84% 0 in
08:29 57.4 °F 51.6 °F 30.24 in Calm   -999.0 mph 81% 0 in
08:45 59.2 °F 49.0 °F 30.24 in Calm   -999.0 mph 69% 0 in
09:00 61.7 °F 46.3 °F 30.24 in Calm   -999.0 mph 57% 0 in
09:15 64.8 °F 43.0 °F 30.24 in SSW 1.7 mph -999.0 mph 45% 0 in
09:30 66.0 °F 40.3 °F 30.25 in Calm   -999.0 mph 39% 0 in
09:45 67.6 °F 39.7 °F 30.25 in NNW 2.7 mph -999.0 mph 36% 0 in
10:01 68.5 °F 39.8 °F 30.25 in North 4.7 mph -999.0 mph 35% 0 in
10:16 69.6 °F 40.0 °F 30.25 in WNW 2.7 mph -999.0 mph 34% 0 in
10:31 70.9 °F 39.6 °F 30.26 in SSE 1.1 mph -999.0 mph 32% 0 in
10:46 73.8 °F 37.7 °F 30.26 in NW 4.7 mph -999.0 mph 27% 0 in
11:02 75.6 °F 38.3 °F 30.26 in ESE 2.2 mph -999.0 mph 26% 0 in
11:17 77.0 °F 36.4 °F 30.26 in WNW 1.7 mph -999.0 mph 23% 0 in
11:32 78.1 °F 37.3 °F 30.26 in NW 4.2 mph -999.0 mph 23% 0 in
11:47 76.6 °F 39.2 °F 30.26 in WNW 3.7 mph -999.0 mph 26% 0 in
12:03 78.4 °F 38.6 °F 30.26 in NNE 4.7 mph -999.0 mph 24% 0 in
12:18 79.0 °F 40.2 °F 30.25 in NNW 7.3 mph -999.0 mph 25% 0 in
12:33 78.8 °F 41.0 °F 30.26 in NW 4.7 mph -999.0 mph 26% 0 in
12:48 79.3 °F 42.4 °F 30.26 in NW 4.7 mph -999.0 mph 27% 0 in
13:03 79.5 °F 43.5 °F 30.26 in NW 5.8 mph -999.0 mph 28% 0 in
13:19 79.9 °F 46.6 °F 30.26 in NNW 4.2 mph -999.0 mph 31% 0 in
13:34 80.4 °F 45.2 °F 30.26 in NNW 4.2 mph -999.0 mph 29% 0 in
13:49 83.5 °F 42.9 °F 30.26 in NW 4.7 mph -999.0 mph 24% 0 in
14:05 82.6 °F 42.2 °F 30.26 in NNW 2.7 mph -999.0 mph 24% 0 in
14:20 81.0 °F 47.5 °F 30.26 in SSW 2.7 mph -999.0 mph 31% 0 in
14:35 79.9 °F 44.8 °F 30.26 in North 7.3 mph -999.0 mph 29% 0 in
14:51 81.1 °F 43.0 °F 30.26 in West 3.7 mph -999.0 mph 26% 0 in
15:06 80.6 °F 41.5 °F 30.26 in NNE 1.7 mph -999.0 mph 25% 0 in
15:21 80.1 °F 41.1 °F 30.26 in SW 1.1 mph -999.0 mph 25% 0 in
15:36 79.0 °F 43.1 °F 30.26 in NNW 4.7 mph -999.0 mph 28% 0 in
15:51 78.4 °F 44.4 °F 30.26 in NNE 5.3 mph -999.0 mph 30% 0 in
16:07 78.8 °F 43.9 °F 30.26 in NNW 4.2 mph -999.0 mph 29% 0 in
16:22 78.4 °F 44.4 °F 30.25 in NW 4.2 mph -999.0 mph 30% 0 in
16:37 77.7 °F 42.0 °F 30.25 in NNW 5.8 mph -999.0 mph 28% 0 in
16:52 79.9 °F 40.9 °F 30.25 in NW 4.2 mph -999.0 mph 25% 0 in
17:08 81.3 °F 41.1 °F 30.25 in NW 3.7 mph -999.0 mph 24% 0 in
17:38 81.3 °F 41.1 °F 30.24 in NW 4.2 mph -999.0 mph 24% 0 in
17:53 80.4 °F 43.4 °F 30.24 in NW 3.7 mph -999.0 mph 27% 0 in
18:09 80.2 °F 43.2 °F 30.24 in North 2.7 mph -999.0 mph 27% 0 in
18:24 78.8 °F 43.9 °F 30.24 in NNW 2.7 mph -999.0 mph 29% 0 in
18:39 74.8 °F 43.0 °F 30.24 in NE 5.3 mph -999.0 mph 32% 0 in
18:54 71.2 °F 45.0 °F 30.24 in WNW 4.2 mph -999.0 mph 39% 0 in
19:09 68.7 °F 45.9 °F 30.24 in WSW 2.7 mph -999.0 mph 44% 0 in
19:25 67.3 °F 45.8 °F 30.24 in Calm   -999.0 mph 46% 0 in
19:40 66.0 °F 45.2 °F 30.24 in NW 3.2 mph -999.0 mph 47% 0 in
19:55 64.6 °F 46.1 °F 30.24 in NW 2.7 mph -999.0 mph 51% 0 in
20:25 62.2 °F 44.4 °F 30.25 in Calm   -999.0 mph 52% 0 in
20:41 61.3 °F 42.5 °F 30.25 in Calm   -999.0 mph 50% 0 in
20:56 60.3 °F 42.1 °F 30.25 in Calm   -999.0 mph 51% 0 in
21:11 59.4 °F 40.2 °F 30.25 in Calm   -999.0 mph 49% 0 in
21:26 58.5 °F 40.9 °F 30.26 in Calm   -999.0 mph 52% 0 in
21:41 57.7 °F 39.7 °F 30.26 in South 1.7 mph -999.0 mph 51% 0 in
21:57 56.8 °F 38.4 °F 30.26 in South 2.2 mph -999.0 mph 50% 0 in
22:12 56.1 °F 37.7 °F 30.26 in South 1.7 mph -999.0 mph 50% 0 in
22:27 55.6 °F 38.2 °F 30.26 in South 1.7 mph -999.0 mph 52% 0 in
22:42 54.9 °F 36.1 °F 30.26 in South 1.7 mph -999.0 mph 49% 0 in
22:58 54.0 °F 32.6 °F 30.26 in Calm   -999.0 mph 44% 0 in
23:13 53.6 °F 29.2 °F 30.26 in South 1.7 mph -999.0 mph 39% 0 in
23:28 52.7 °F 29.6 °F 30.26 in South 1.7 mph -999.0 mph 41% 0 in
23:44 52.2 °F 30.9 °F 30.26 in South 1.7 mph -999.0 mph 44% 0 in
23:59 51.4 °F 35.3 °F 30.26 in Calm   -999.0 mph 54% 0 in
Big Bear CA Weather